Satellite-Ground Cal/Val Region Overpasses Predictions

Prediction of Satellite NPP Overpassing Cal/Val Region: PacNW

Region Location: (Latitude: 10.00, Longitude: 139.50) to (Latitude: 22.70, Longitude: 165.60).

Table of predicted overpasses for the next 14.0 days since TLE Epoch: 12/17/2023
Interval Starting Time Starting Location Ending Time Ending Location
1 12/17/2023 15:49:37 ( 22.65, 147.61) 12/17/2023 15:53:12 ( 10.03, 144.61)
2 12/18/2023 02:58:42 ( 10.05, 155.14) 12/18/2023 03:02:17 ( 22.67, 152.14)
3 12/18/2023 15:30:34 ( 22.69, 152.38) 12/18/2023 15:34:10 ( 10.01, 149.37)
4 12/19/2023 02:39:39 ( 10.01, 159.91) 12/19/2023 02:43:15 ( 22.69, 156.90)
5 12/19/2023 15:11:32 ( 22.66, 157.14) 12/19/2023 15:15:07 ( 10.04, 154.14)
6 12/20/2023 02:20:36 ( 10.04, 164.67) 12/20/2023 02:24:11 ( 22.66, 161.67)
7 12/20/2023 14:52:28 ( 22.70, 161.91) 12/20/2023 14:56:04 ( 10.02, 158.89)
8 12/21/2023 03:43:03 ( 10.01, 144.06) 12/21/2023 03:46:39 ( 22.69, 141.04)
9 12/21/2023 14:34:40 ( 18.33, 165.60) 12/21/2023 14:37:01 ( 10.05, 163.66)
10 12/21/2023 16:14:56 ( 22.66, 141.29) 12/21/2023 16:17:01 ( 15.33, 139.51)
11 12/22/2023 03:24:00 ( 10.04, 148.82) 12/22/2023 03:27:35 ( 22.66, 145.81)
12 12/22/2023 15:55:52 ( 22.70, 146.06) 12/22/2023 15:59:28 ( 10.02, 143.04)
13 12/23/2023 03:04:57 ( 10.01, 153.58) 12/23/2023 03:08:33 ( 22.69, 150.57)
14 12/23/2023 15:36:50 ( 22.67, 150.81) 12/23/2023 15:40:25 ( 10.05, 147.81)
15 12/24/2023 02:45:54 ( 10.04, 158.34) 12/24/2023 02:49:29 ( 22.66, 155.34)
16 12/24/2023 15:17:46 ( 22.70, 155.58) 12/24/2023 15:21:22 ( 10.02, 152.57)
17 12/25/2023 02:26:51 ( 10.01, 163.11) 12/25/2023 02:30:27 ( 22.69, 160.09)
18 12/25/2023 14:58:44 ( 22.67, 160.34) 12/25/2023 15:02:19 ( 10.05, 157.33)
19 12/26/2023 02:10:33 ( 19.67, 165.60) 12/26/2023 02:11:24 ( 22.66, 164.86)
20 12/26/2023 03:49:19 ( 10.05, 142.49) 12/26/2023 03:52:52 ( 22.56, 139.51)
21 12/26/2023 14:39:40 ( 22.70, 165.10) 12/26/2023 14:43:16 ( 10.02, 162.09)
22 12/26/2023 16:21:10 ( 22.69, 139.73) 12/26/2023 16:21:25 ( 21.81, 139.51)
23 12/27/2023 03:30:15 ( 10.02, 147.25) 12/27/2023 03:33:50 ( 22.65, 144.25)
24 12/27/2023 16:02:08 ( 22.66, 144.48) 12/27/2023 16:05:43 ( 10.04, 141.48)
25 12/28/2023 03:11:13 ( 10.05, 152.01) 12/28/2023 03:14:48 ( 22.68, 149.01)
26 12/28/2023 15:43:04 ( 22.68, 149.25) 12/28/2023 15:46:40 ( 10.00, 146.24)
27 12/29/2023 02:52:09 ( 10.03, 156.78) 12/29/2023 02:55:44 ( 22.66, 153.77)
28 12/29/2023 15:24:02 ( 22.65, 154.00) 12/29/2023 15:27:37 ( 10.03, 151.00)
29 12/30/2023 02:33:06 ( 10.01, 161.54) 12/30/2023 02:36:42 ( 22.69, 158.53)
30 12/30/2023 15:04:58 ( 22.67, 158.77) 12/30/2023 15:08:33 ( 10.05, 155.77)
